Weather History for Del Rio, TX

Change the Weather History Date:

Tuesday, September 4, 2012

  Actual Average Record
Temperature  
Mean Temperature 92 °F 84 °F  
Max Temperature 104 °F 94 °F 107 °F (2000)
Min Temperature 80 °F 73 °F 63 °F (1934)
Degree Days  
Heating Degree Days 0 0  
Month to date heating degree days 0 0  
Since 1 July heating degree days 0 0  
Cooling Degree Days 27 19  
Month to date cooling degree days 103 76  
Year to date cooling degree days 3250 2711  
Growing Degree Days 42 (Base 50)    
Moisture  
Dew Point 64 °F    
Average Humidity 47    
Maximum Humidity 69    
Minimum Humidity 24    
Precipitation  
Precipitation 0.00 in 0.08 in 2.49 in (2007)
Month to date precipitation 0.00 0.34  
Year to date precipitation 9.82 13.85  
Sea Level Pressure  
Sea Level Pressure 29.82 in    
Wind  
Wind Speed 10 mph (SE)    
Max Wind Speed 18 mph    
Max Gust Speed 25 mph    
Visibility 10 miles    
Events      
T = Trace of Precipitation, MM = Missing Value Source: NWS Daily Summary

Daily Weather History Graph

Daily Weather History Graph

Search for Another Location

Airport:

Trip Planner

Search our weather history database for the weather conditions in past years. The results will help you decide how hot, cold, wet, or windy it might be!

Date:

Astronomy

Sep. 04, 2012 Rise Set
Actual Time 7:23 AM CDT 8:01 PM CDT
Civil Twilight 6:58 AM CDT 8:25 PM CDT
Nautical Twilight 6:30 AM CDT 8:53 PM CDT
Astronomical Twilight 6:01 AM CDT 9:22 PM CDT
Moon 10:21 PM CDT (9/4) 11:07 AM CDT (9/4)
Length of Visible Light 13h 26m
Length of Day
12h 38m
Waning Gibbous, 83% of the Moon is Illuminated
Sep 4
Waning Gibbous
Sep 8
Last Quarter
Sep 15
New
Sep 22
First Quarter
Sep 29
Full

Hourly Weather History & Observations

Time (CDT) Temp. Heat Index Dew Point Humidity Pressure Visibility Wind Dir Wind Speed Gust Speed Precip Events Conditions
12:53 AM 88.0 °F 86.5 °F 55.9 °F 34% 29.83 in 10.0 mi ESE 5.8 mph - N/A   Clear
1:53 AM 88.0 °F 87.6 °F 60.1 °F 39% 29.83 in 10.0 mi ESE 9.2 mph - N/A   Clear
2:53 AM 86.0 °F 87.3 °F 64.0 °F 48% 29.83 in 10.0 mi ESE 10.4 mph - N/A   Clear
3:53 AM 86.0 °F 89.4 °F 68.0 °F 55% 29.84 in 10.0 mi ESE 8.1 mph - N/A   Clear
4:53 AM 84.0 °F 86.5 °F 66.9 °F 56% 29.84 in 10.0 mi SE 12.7 mph 17.3 mph N/A   Clear
5:53 AM 82.9 °F 85.4 °F 66.9 °F 58% 29.85 in 10.0 mi ESE 6.9 mph - N/A   Clear
6:53 AM 81.0 °F 83.8 °F 68.0 °F 65% 29.87 in 10.0 mi ESE 8.1 mph - N/A   Clear
7:53 AM 80.1 °F 82.9 °F 69.1 °F 69% 29.88 in 10.0 mi ESE 9.2 mph - N/A   Clear
8:53 AM 82.0 °F 85.5 °F 69.1 °F 65% 29.90 in 10.0 mi SE 9.2 mph - N/A   Clear
9:53 AM 84.0 °F 88.4 °F 70.0 °F 63% 29.90 in 10.0 mi SE 11.5 mph - N/A   Clear
10:53 AM 86.0 °F 91.5 °F 71.1 °F 61% 29.90 in 10.0 mi SE 10.4 mph 18.4 mph N/A   Clear
11:53 AM 90.0 °F 96.4 °F 71.1 °F 54% 29.89 in 10.0 mi SE 9.2 mph - N/A   Clear
12:53 PM 93.9 °F 98.6 °F 68.0 °F 43% 29.86 in 10.0 mi SSE 11.5 mph 16.1 mph N/A   Clear
1:53 PM 99.0 °F 103.5 °F 66.9 °F 35% 29.83 in 10.0 mi SE 15.0 mph 25.3 mph N/A   Clear
2:53 PM 100.0 °F 104.2 °F 66.0 °F 33% 29.80 in 10.0 mi SE 12.7 mph 20.7 mph N/A   Clear
3:53 PM 100.9 °F 103.3 °F 63.0 °F 29% 29.76 in 10.0 mi SSE 11.5 mph - N/A   Clear
4:53 PM 102.2 °F 104.2 °F 62.6 °F 27% 29.79 in 10.0 mi SSE 15.0 mph 18.4 mph N/A   Clear
5:53 PM 102.9 °F 104.8 °F 62.1 °F 26% 29.72 in 10.0 mi SSE 12.7 mph - N/A   Clear
6:53 PM 102.0 °F 103.9 °F 62.1 °F 27% 29.72 in 10.0 mi SSE 13.8 mph - N/A   Clear
7:53 PM 100.0 °F 100.7 °F 60.1 °F 27% 29.72 in 10.0 mi SE 11.5 mph - N/A   Clear
8:53 PM 97.0 °F 96.9 °F 60.1 °F 29% 29.74 in 10.0 mi ESE 8.1 mph - N/A   Clear
9:53 PM 95.0 °F 93.7 °F 57.0 °F 28% 29.76 in 10.0 mi ESE 8.1 mph - N/A   Clear
10:53 PM 93.0 °F - 52.0 °F 25% 29.77 in 10.0 mi ESE 8.1 mph - N/A   Clear
11:53 PM 91.0 °F - 51.1 °F 25% 29.78 in 10.0 mi ESE 8.1 mph - N/A   Clear